Other Public Products
Issued by NWS Charleston, SC

Current Version | Previous Version | Graphics & Text | Print | Product List | Glossary On
Versions: 1 2 3 4 5 6 7 8 9 10 11 12 13 14 15 16 17 18 19 20 21 22 23 24 25 26 27 28 29 30 31 32 33 34 35 36 37 38 39 40 41 42 43 44 45 46 47 48 49 50
000 FPUS82 KCHS 282212 OPUCHS TEST...KCHS/KSAV Gateway Observations...TEST National Weather Service Charleston SC 600 PM EDT SUN MAY 28 2017 NOTE: "fair" indicates few or no clouds below 12,000 feet with no significant weather and/or obstructions to visibility. SCZ050-WAZ558-NCZ071-TXZ119-213-PAZ071-DCZ001-FLZ074-172-MI076- NYZ176-178-MAZ016-IL014-TNZ027-NJZ106-GAZ044-MD014-282300- ...Gateway Observations for Charleston International... CITY SKY/WX TMP DP RH WIND PRES REMARKS Chas Airport PTSUNNY 86 72 62 SW9 29.86F HX 92 Seattle MOSUNNY 83 49 30 N10 30.06F Charlotte PTSUNNY 85 65 51 SW9 29.84F Dallas DFW CLOUDY 78 70 76 N12 29.93F Dallas Love PTSUNNY 77 69 76 E8 29.92F Philladelphia CLOUDY 71 56 58 E9 29.86F Wash National CLOUDY 68 66 93 NE7 29.83F Baltimore CLOUDY 67 65 93 E7 29.83F Miami MOSUNNY 92 74 55 SE13G20 29.99S HX 101 Detroit LGT RAIN 64 61 90 S16G25 29.69S Newark CLOUDY 65 53 65 E13 29.94R Laguardia CLOUDY 67 48 50 SE10 29.95R J F K PTSUNNY 64 53 67 SE13 29.96R Boston Logan CLOUDY 61 55 81 NE3 29.97F Ft. Lauderdale MOSUNNY 89 75 63 SE12 29.98S HX 99 Chicago O`Hare MOSUNNY 76 51 41 W13G23 29.73R Chicago Midway MOSUNNY 76 52 43 W17 29.73R Houston Bush CLOUDY 88 74 63 S17 29.88F HX 96 Houston Hobby CLOUDY 86 75 69 S12 29.89F HX 95 Nashville PTSUNNY 78 61 55 W10 29.91R Atlanta PTSUNNY 84 65 52 W10G20 29.92R $$ GAZ044-118-TXZ119-213-NCZ071-DCZ001-MDZ014-506-PAZ021-071-NJZ106- NYZ176-178-MAZ106-OHZ011-021-055-MIZ076-KYZ091-ILZ014-INZ047- MNZ060-ONZ431-282300- ...Gateway Observations for Savannah International... CITY SKY/WX TMP DP RH WIND PRES REMARKS Savannah Arpt MOSUNNY 94 65 38 W10 29.88F HX 96 Atlanta PTSUNNY 84 65 52 W10G20 29.92R Charlotte PTSUNNY 85 65 51 SW9 29.84F Dallas DFW CLOUDY 78 70 76 N12 29.93F Houston Bush CLOUDY 88 74 63 S17 29.88F HX 96 Wash National CLOUDY 68 66 93 NE7 29.83F Wash Dulles CLOUDY 66 63 90 E3 29.84R Baltimore CLOUDY 67 65 93 E7 29.83F Philadelphia CLOUDY 71 56 58 E9 29.86F Newark CLOUDY 65 53 65 E13 29.94R Laguardia CLOUDY 67 48 50 SE10 29.95R J F K PTSUNNY 64 53 67 SE13 29.96R Boston CLOUDY 61 55 81 NE3 29.97F Pittsburg CLOUDY 78 64 61 S12 29.74S Akron PTSUNNY 78 62 57 SW21G26 29.72R Cleveland TSTM 66 61 84 SW12 29.77R Cincinnati CLOUDY 72 62 71 SW10 29.80S Columbus CLOUDY 77 63 60 W16G24 29.75S Detroit LGT RAIN 64 61 90 S16G25 29.69S Chicago O`Hare MOSUNNY 76 51 41 W13G23 29.73R Minneapolis PTSUNNY 68 45 43 NW24G43 29.73R Indianapolis TSTM 71 64 78 W22G33 29.79R VSB 3/4 Toronto Canada MOSUNNY 68 55 64 E12G17 29.73F $$

USA.gov is the U.S. government's official web portal to all federal, state and local government web resources and services.